Weather History for Shirley, NY

Change the Weather History Date:

Sunday, February 17, 2013

  Actual Average (KISP) Record (KISP)
Temperature  
Mean Temperature 24 °F 33 °F  
Max Temperature 30 °F 41 °F 57 °F (2006)
Min Temperature 18 °F 25 °F 9 °F (1994)
Degree Days  
Heating Degree Days 41 32  
Month to date heating degree days 563  
Since 1 July heating degree days 3555  
Cooling Degree Days 0 0  
Month to date cooling degree days 0  
Year to date cooling degree days 0  
Moisture  
Dew Point 12 °F    
Average Humidity 58    
Maximum Humidity 86    
Minimum Humidity 29    
Precipitation  
Precipitation 0.01 in 0.11 in 0.62 in (1988)
Month to date precipitation 1.86  
Year to date precipitation 5.50  
Snow  
Snow 0.00 in 0.30 in 2.50 in (1996)
Month to date snowfall 4.2  
Since 1 July snowfall 16.8  
Snow Depth -    
Sea Level Pressure  
Sea Level Pressure 29.68 in    
Wind  
Wind Speed 18 mph (NNW)    
Max Wind Speed 30 mph    
Max Gust Speed 41 mph    
Visibility 6 miles    
Events Snow    
T = Trace of Precipitation, MM = Missing Value Source: NWS Daily Summary

Daily Weather History Graph

Daily Weather History Graph

Search for Another Location

Airport:

Trip Planner

Search our weather history database for the weather conditions in past years. The results will help you decide how hot, cold, wet, or windy it might be!

Date:

Astronomy

Feb. 17, 2013 Rise Set
Actual Time 6:42 AM EST 5:28 PM EST
Civil Twilight 6:14 AM EST 5:56 PM EST
Nautical Twilight 5:42 AM EST 6:28 PM EST
Astronomical Twilight 5:10 AM EST 7:00 PM EST
Moon 10:30 AM EST (2/17) 12:24 AM EST (2/17)
Length of Visible Light 11h 42m
Length of Day
10h 46m
Waxing Crescent, 49% of the Moon is Illuminated
Feb 17
Waxing Crescent
Feb 17
First Quarter
Feb 25
Full
Mar 4
Last Quarter
Mar 11
New

Hourly Weather History & Observations

Time (EST) Temp. Windchill Dew Point Humidity Pressure Visibility Wind Dir Wind Speed Gust Speed Precip Events Conditions
12:56 AM 30.0 °F 19.1 °F 23.0 °F 75% 29.68 in 4.0 mi North 15.0 mph 24.2 mph 0.00 in Snow Light Snow
1:15 AM 28.4 °F 16.6 °F 23.0 °F 80% 29.66 in 2.0 mi North 16.1 mph 28.8 mph 0.00 in Snow Light Snow
1:22 AM 28.4 °F 15.4 °F 23.0 °F 80% 29.66 in 1.2 mi North 19.6 mph 25.3 mph 0.00 in Snow Light Snow
1:36 AM 28.4 °F 15.8 °F 23.0 °F 80% 29.66 in 1.0 mi North 18.4 mph 34.5 mph 0.00 in Snow Light Snow
1:56 AM 28.0 °F 17.5 °F 23.0 °F 81% 29.66 in 1.0 mi North 12.7 mph 27.6 mph 0.00 in Snow Light Snow
2:16 AM 26.6 °F 15.7 °F 23.0 °F 86% 29.66 in 2.0 mi North 12.7 mph 23.0 mph 0.00 in Snow Light Snow
2:30 AM 26.6 °F 15.2 °F 23.0 °F 86% 29.67 in 1.5 mi North 13.8 mph 23.0 mph 0.00 in Snow Light Snow
2:56 AM 26.1 °F 14.5 °F 21.9 °F 84% 29.65 in 1.5 mi North 13.8 mph 23.0 mph 0.01 in Snow Light Snow
3:07 AM 26.6 °F 15.7 °F 21.2 °F 80% 29.64 in 1.8 mi North 12.7 mph 23.0 mph 0.00 in Snow Light Snow
3:14 AM 26.6 °F 15.7 °F 21.2 °F 80% 29.63 in 2.0 mi North 12.7 mph 21.9 mph 0.00 in Snow Light Snow
3:56 AM 27.0 °F 15.2 °F 21.9 °F 81% 29.63 in 2.0 mi North 15.0 mph 21.9 mph 0.00 in Snow Light Snow
4:11 AM 26.6 °F 15.2 °F 21.2 °F 80% 29.62 in 3.0 mi North 13.8 mph 25.3 mph 0.00 in Snow Light Snow
4:56 AM 26.1 °F 12.3 °F 19.9 °F 78% 29.63 in 2.5 mi North 19.6 mph 29.9 mph 0.00 in Snow Light Snow
5:08 AM 26.6 °F 13.4 °F 19.4 °F 74% 29.60 in 4.0 mi North 18.4 mph 25.3 mph 0.00 in Snow Light Snow
5:56 AM 27.0 °F 15.2 °F 14.0 °F 58% 29.60 in 10.0 mi NNW 15.0 mph 26.5 mph 0.00 in   Overcast
6:56 AM 25.0 °F 12.2 °F 10.0 °F 53% 29.60 in 10.0 mi NW 16.1 mph 27.6 mph 0.00 in   Overcast
7:56 AM 24.1 °F 8.0 °F 7.0 °F 48% 29.60 in 5.0 mi NW 25.3 mph 35.7 mph 0.00 in   Overcast
8:15 AM 24.8 °F 10.7 °F 8.6 °F 50% 29.58 in 3.0 mi NW 19.6 mph 35.7 mph 0.00 in   Overcast
8:56 AM 25.0 °F 11.7 °F 8.1 °F 49% 29.60 in 8.0 mi NW 17.3 mph 31.1 mph 0.00 in   Clear
9:56 AM 25.0 °F 10.2 °F 6.1 °F 45% 29.59 in 10.0 mi NW 21.9 mph 29.9 mph 0.00 in   Clear
10:56 AM 26.1 °F 11.6 °F 6.1 °F 43% 29.61 in 9.0 mi NW 21.9 mph 33.4 mph 0.00 in   Clear
11:56 AM 28.9 °F 14.8 °F 5.0 °F 36% 29.61 in 10.0 mi NW 24.2 mph 38.0 mph 0.00 in   Clear
12:56 PM 30.0 °F 16.6 °F 5.0 °F 35% 29.62 in 10.0 mi NW 23.0 mph 38.0 mph 0.00 in   Clear
1:56 PM 30.9 °F 18.1 °F 1.9 °F 29% 29.63 in 10.0 mi NW 21.9 mph 33.4 mph N/A   Clear
2:56 PM 30.0 °F 16.3 °F 5.0 °F 35% 29.65 in 10.0 mi WNW 24.2 mph 39.1 mph N/A   Clear
3:56 PM 30.0 °F 14.9 °F 3.0 °F 32% 29.67 in 10.0 mi WNW 29.9 mph 41.4 mph N/A   Clear
4:56 PM 28.0 °F 13.9 °F 3.0 °F 34% 29.70 in 10.0 mi WNW 23.0 mph 28.8 mph N/A   Clear
5:56 PM 26.1 °F 11.3 °F 3.9 °F 39% 29.75 in 10.0 mi WNW 23.0 mph 36.8 mph N/A   Clear
6:56 PM 24.1 °F 9.8 °F 3.9 °F 42% 29.79 in 10.0 mi WNW 19.6 mph 35.7 mph N/A   Clear
7:56 PM 23.0 °F 7.2 °F 3.0 °F 42% 29.83 in 10.0 mi WNW 23.0 mph 29.9 mph N/A   Clear
8:56 PM 21.0 °F 4.3 °F 1.9 °F 44% 29.85 in 10.0 mi WNW 24.2 mph 34.5 mph N/A   Clear
9:56 PM 19.0 °F 1.6 °F 3.0 °F 50% 29.88 in 10.0 mi NW 24.2 mph 34.5 mph N/A   Clear
10:56 PM 18.0 °F -0.8 °F 1.0 °F 48% 29.89 in 10.0 mi WNW 27.6 mph 36.8 mph N/A   Clear
11:56 PM 18.0 °F 1.7 °F 1.9 °F 50% 29.91 in 10.0 mi WNW 19.6 mph 29.9 mph N/A   Clear